User: anonymous   Login
Location: Voyageurs National Park
(48.5020°N, 92.9292°W)
Time: 22:18:00
(UTC-06:00)
Language:

Terra - Orbit

View from above orbital plane
View from above orbital plane
View from above satellite
View from above satellite

Ground track
Ground track

The orbit data is extracted from the following two-line orbital elements,

1 25994U 99068A   14330.84870083  .00000776  00000-0  18237-3 0  8601
2 25994 098.2096 043.2495 0001021 079.8994 280.2308 14.57102090794756
Epoch (UTC): 26 November 2014 20:22:07
Eccentricity: 0.0001021
inclination: 98.2096°
perigee height: 702 km
apogee height: 703 km
right ascension of ascending node: 43.2495°
argument of perigee: 79.8994°
revolutions per day: 14.57102090
mean anomaly at epoch: 280.2308°
orbit number at epoch: 79475

The dashed part of the orbit path shows where the satellite is in the earth's shadow,  

DLR